{"data":{"norad_id":43677,"epoch":"2026-09-19T18:52:17.985792Z","epoch_age_seconds":116510,"freshness":"FRESH","line1":"1 43677U 18084G   26262.78631928  .00000737  00000+0  59286-4 0  9990","line2":"2 43677  98.0719  99.1525 0009818 153.9496 206.2224 15.03252584430377","mean_motion":15.03252584,"eccentricity":0.0009818,"inclination_deg":98.0719,"raan_deg":99.1525,"arg_perigee_deg":153.9496,"mean_anomaly_deg":206.2224,"bstar":5.9286e-5,"rev_number":43037,"period_min":95.792285030923,"perigee_km":550.06596702262,"apogee_km":563.68355611764,"semimajor_km":6935.0117615701,"source":"CELESTRAK","updated_at":"2026-09-20T09:00:14.367719Z"}}